Weather History for MROC - June, 2013

Change the Weather History Date:

Wednesday, June 26, 2013

  Actual Average Record
Temperature  
Mean Temperature 74 °F -  
Max Temperature 85 °F 80 °F 87 °F (1998)
Min Temperature 62 °F 65 °F 62 °F (2000)
Cooling Degree Days 8    
Growing Degree Days 24 (Base 50)    
Moisture  
Dew Point 64 °F    
Average Humidity 74    
Maximum Humidity 100    
Minimum Humidity 38    
Precipitation  
Precipitation 0.94 in 0.26 in - ()
Sea Level Pressure  
Sea Level Pressure 29.97 in    
Wind  
Wind Speed 6 mph ()    
Max Wind Speed 16 mph    
Max Gust Speed 20 mph    
Visibility 7.6 miles    
Events Rain , Thunderstorm    
Averages and records for this station are not official NWS values.
T = Trace of Precipitation, MM = Missing Value Source: Averaged Metar Reports

Daily Weather History Graph

Daily Weather History Graph

Search for Another Location

Airport or City:

Trip Planner

Search our weather history database for the weather conditions in past years. The results will help you decide how hot, cold, wet, or windy it might be!

Date:

Astronomy

Jun. 26, 2013 Rise Set
Actual Time 5:18 AM CST 6:00 PM CST
Civil Twilight 4:55 AM CST 6:24 PM CST
Nautical Twilight 4:28 AM CST 6:51 PM CST
Astronomical Twilight 4:00 AM CST 7:18 PM CST
Moon 9:10 PM CST (6/26) 8:29 AM CST (6/26)
Length of Visible Light 13h 28m
Length of Day
12h 42m
Waning Gibbous, 85% of the Moon is Illuminated
Jun 26
Waning Gibbous
Jun 29
Last Quarter
Jul 8
New
Jul 15
First Quarter
Jul 22
Full

Hourly Weather History & Observations

Time (CST) Temp. Heat Index Dew Point Humidity Pressure Visibility Wind Dir Wind Speed Gust Speed Precip Events Conditions
12:00 AM 72 °F - 58 °F 53% 29.83 in 12 mi SE 6.9 mph - -   Clear
12:00 AM 71.6 °F - 59.0 °F 64% 30.00 in - SE 6.9 mph - N/A   Clear
1:00 AM 68.0 °F - 59.0 °F 73% 30.01 in - West 2.3 mph - N/A   Clear
2:00 AM 66.2 °F - 60.8 °F 83% 30.01 in - NW 2.3 mph - N/A   Clear
3:00 AM 65 °F - 60 °F 78% 29.90 in 12 mi East 4.6 mph - -   Clear
3:00 AM 64.4 °F - 59.0 °F 83% 30.01 in - East 4.6 mph - N/A   Clear
4:00 AM 64.4 °F - 57.2 °F 77% 30.01 in - East 5.8 mph - N/A   Clear
5:00 AM 64.4 °F - 59.0 °F 83% 30.02 in - East 4.6 mph - N/A   Clear
6:00 AM 67 °F - 60 °F 72% 29.93 in 12 mi NE 8.1 mph - -   Scattered Clouds
6:00 AM 66.2 °F - 60.8 °F 83% 30.03 in 6.2 mi NE 8.1 mph - N/A   Scattered Clouds
7:00 AM 71.6 °F - 60.8 °F 69% 30.02 in 6.2 mi ENE 10.4 mph - N/A   Scattered Clouds
8:00 AM 75.2 °F - 62.6 °F 65% 30.04 in 6.2 mi ESE 8.1 mph 19.6 mph N/A   Scattered Clouds
9:00 AM 79 °F - 63 °F 49% 29.87 in 12 mi NNE 9.2 mph - -   Scattered Clouds
9:00 AM 78.8 °F - 62.6 °F 57% 30.04 in 6.2 mi NNE 9.2 mph - N/A   Partly Cloudy
10:00 AM 80.6 °F 81.8 °F 62.6 °F 54% 30.04 in 6.2 mi East 15.0 mph - N/A   Scattered Clouds
11:00 AM 82.4 °F 83.4 °F 62.6 °F 51% 30.02 in 6.2 mi ESE 10.4 mph - N/A   Scattered Clouds
12:00 PM 84 °F - 62 °F 38% 29.85 in 12 mi SE 16.1 mph - -   Partly Cloudy
12:00 PM 84.2 °F 85.0 °F 62.6 °F 48% 30.00 in 6.2 mi SE 16.1 mph - N/A   Mostly Cloudy
1:00 PM 84.2 °F 85.0 °F 62.6 °F 48% 30.00 in 6.2 mi SSW 11.5 mph - N/A   Scattered Clouds
2:00 PM 82.4 °F 86.3 °F 69.8 °F 66% 29.98 in 6.2 mi SW 13.8 mph - N/A   Mostly Cloudy
3:00 PM 80 °F - 69 °F 63% 29.81 in 12 mi SW 10.4 mph - -   Partly Cloudy
3:00 PM 80.6 °F 83.9 °F 69.8 °F 70% 29.97 in 6.2 mi SW 10.4 mph - N/A   Scattered Clouds
4:00 PM 75.2 °F - 69.8 °F 83% 29.97 in 6.2 mi WSW 10.4 mph - N/A Rain Rain
4:27 PM 73.4 °F - 69.8 °F 88% 29.98 in 0.6 mi WSW 9.2 mph - N/A Rain Rain
5:00 PM 68.0 °F - 66.2 °F 94% 29.99 in 4.3 mi NNE 9.2 mph - N/A Rain , Thunderstorm Thunderstorms and Rain
5:15 PM 68.0 °F - 68.0 °F 100% 30.00 in 6.2 mi SW 3.5 mph - N/A   Light Drizzle
6:00 PM 70 °F - 68 °F 92% 29.85 in 9 mi West 4.6 mph - -   Overcast
6:00 PM 69.8 °F - 68.0 °F 94% 30.00 in 6.2 mi West 4.6 mph - N/A   Mostly Cloudy
7:00 PM 69.8 °F - 68.0 °F 94% 30.01 in 6.2 mi NNE 2.3 mph - N/A   Scattered Clouds
8:00 PM 69.8 °F - 68.0 °F 94% 30.01 in 6.2 mi North 2.3 mph - N/A   Partly Cloudy
9:00 PM 70 °F - 65 °F 80% 29.85 in 12 mi ESE 3.5 mph - -   Scattered Clouds
9:00 PM 69.8 °F - 64.4 °F 83% 30.01 in 6.2 mi ESE 3.5 mph - N/A   Partly Cloudy
10:00 PM 69.8 °F - 64.4 °F 83% 30.01 in - ENE 2.3 mph - N/A   Clear
11:00 PM 68.0 °F - 64.4 °F 88% 30.03 in - NE 4.6 mph - N/A   Clear